This demonstration page uses our WeatherBlox Daily Observations layout. Learn more.

Left ArrowRight Arrow

39.01783, -85.05884

Hourly Observations for October 11, 2015

Temp ( °F °C ) Dew Point ( °F °C ) Humidity (%) Winds ( mph kmh ) Pressure ( in mb ) Visibility ( mi km ) Precip ( " mm )
12:52 am 00:52 Clear 47 8.3 44 6.7 90 90 N N/A 30.04 1017 10 16 N/A
1:52 am 01:52 Partly Cloudy 44 6.7 42 5.6 93 93 N N/A 30.04 1017 10 16 N/A
2:52 am 02:52 Partly Cloudy 45 7.2 43 6.1 93 93 N N/A 30.03 1017 10 16 N/A
3:52 am 03:52 Partly Cloudy 44 6.7 42 5.6 93 93 N N/A 30.02 1017 10 16 N/A
4:52 am 04:52 Partly Cloudy 42 5.6 41 5 96 96 N N/A 30.01 1016 10 16 N/A
5:52 am 05:52 Partly Cloudy 45 7.2 42 5.6 90 90 N N/A 30.01 1016 10 16 N/A
6:52 am 06:52 Partly Cloudy 43 6.1 41 5 93 93 N N/A 30.01 1016 10 16 N/A
7:52 am 07:52 Partly Cloudy 44 6.7 42 5.6 93 93 N N/A 30.02 1017 7 11 N/A
8:52 am 08:52 Mostly Cloudy 49 9.4 46 7.8 90 90 N N/A 30.04 1017 7 11 N/A
9:52 am 09:52 Mostly Cloudy 56 13.3 48 8.9 75 75 SW 5 7 30.03 1017 9 14 N/A
10:52 am 10:52 Partly Cloudy 62 16.7 49 9.4 62 62 W 8 13 30.02 1017 10 16 N/A
11:52 am 11:52 Partly Cloudy 65 18.3 48 8.9 54 54 W 10 17 30.01 1016 10 16 N/A
12:52 pm 12:52 Partly Cloudy 67 19.4 49 9.4 53 53 SW 7 11 29.99 1016 10 16 N/A
1:52 pm 13:52 Partly Cloudy 70 21.1 49 9.4 47 47 WSW 8 13 29.96 1015 10 16 N/A
2:52 pm 14:52 Partly Cloudy 71 21.7 45 7.2 39 39 WSW 12 19 29.92 1013 10 16 N/A
3:52 pm 15:52 Mostly Sunny 72 22.2 47 8.3 41 41 S 8 13 29.90 1012 10 16 N/A
4:52 pm 16:52 Mostly Sunny 72 22.2 47 8.3 41 41 SW 7 11 29.88 1012 10 16 N/A
5:52 pm 17:52 Mostly Sunny 70 21.1 45 7.2 41 41 S 9 15 29.86 1011 10 16 N/A
6:52 pm 18:52 Mostly Sunny 66 18.9 44 6.7 45 45 SSW 6 9 29.85 1011 10 16 N/A
7:52 pm 19:52 Mostly Clear 61 16.1 45 7.2 56 56 SSW 5 7 29.86 1011 10 16 N/A
8:52 pm 20:52 Mostly Clear 55 12.8 47 8.3 74 74 S 5 7 29.86 1011 10 16 N/A
9:52 pm 21:52 Mostly Clear 54 12.2 46 7.8 75 75 S 6 9 29.86 1011 10 16 N/A
10:52 pm 22:52 Mostly Clear 55 12.8 45 7.2 69 69 S 7 11 29.86 1011 10 16 N/A
11:52 pm 23:52 Clear 55 12.8 45 7.2 69 69 SSW 6 9 29.85 1011 10 16 N/A

Powered by AerisWeather